Temp
17 18 18 19 20 20 20 20 20 19 18 16 16 18 18 16 16 17 17 17 17 17 18 18 18 19 19 19 20 20 20 20 20 21 21 21 21 21 21 21 21 21 21 21 21 21 21 21 21 21 21 21 21 21 21 21 21 21 21 22 22 22 22 21 21 21 21 22 22 23 23 23 23 24 24 24 24 24 23 23 23 22 22 22 21
16 17 18 18 19 20 20 20 20 20 19 17 15 16 17 16 16 16 17 17 17 17 17 17 18 19 19 18 18 19 20 20 20 20 21 21 21 21 21 21 21 21 21 21 21 21 21 21 21 21 21 21 21 21 21 21 21 21 21 21 22 22 22 22 21 20 21 22 22 22 22 23 23 23 23 23 23 23 23 23 23 22 22 22 22
16 16 17 18 19 19 20 20 20 20 20 19 18 17 16 16 17 16 16 16 17 17 17 17 17 18 19 19 18 18 19 20 20 20 20 20 21 21 21 21 21 22 21 21 21 21 21 21 21 21 21 21 21 21 21 22 22 22 22 22 21 22 22 22 21 21 21 21 22 22 22 22 22 23 23 23 23 23 23 23 22 22 22 22 22
15 15 16 17 18 19 19 19 19 19 19 20 20 18 16 16 17 17 16 16 17 17 17 17 16 17 18 19 18 18 18 19 20 20 20 20 20 20 21 21 21 21 21 21 21 21 21 21 21 22 22 21 21 21 22 22 22 22 22 22 22 22 22 22 22 22 21 21 22 22 22 22 22 22 23 23 23 23 23 22 22 22 22 22 22
13 14 15 16 17 19 19 19 19 19 19 19 19 18 18 16 16 17 17 16 16 16 17 17 17 16 17 18 19 19 18 19 19 20 20 20 20 20 20 20 21 21 21 21 21 22 22 22 22 22 22 21 21 22 22 22 22 22 22 22 22 22 22 22 22 22 22 21 21 22 22 22 22 22 22 22 23 23 23 22 22 22 22 22 22
13 14 14 15 17 18 18 19 19 19 19 19 18 17 18 17 15 16 17 16 16 16 17 17 17 17 18 18 19 19 19 18 18 19 20 20 20 20 20 20 20 20 20 21 21 22 22 22 22 22 21 21 21 21 22 22 22 22 22 22 22 22 22 22 22 22 22 21 21 22 22 22 22 22 22 22 23 23 22 22 22 22 22 22 22
12 13 13 14 16 17 18 18 19 19 19 19 17 16 17 17 15 15 16 16 17 17 17 16 17 18 18 18 18 18 19 18 18 18 19 19 19 20 19 20 20 20 20 20 20 21 22 22 22 22 21 21 21 21 21 22 22 21 22 22 22 23 22 22 22 22 21 21 21 21 22 22 22 22 22 22 22 22 22 22 22 22 22 22 22
11 12 13 14 15 17 18 18 19 19 19 18 16 16 17 17 17 16 16 17 17 17 17 17 17 18 18 18 19 18 18 18 18 18 19 19 19 19 20 20 20 19 19 19 20 21 21 22 22 22 22 21 21 21 21 22 22 21 21 21 22 22 22 22 22 22 21 21 21 21 21 21 21 22 22 22 22 22 22 22 21 22 22 22 22
11 11 12 13 15 16 17 18 18 18 18 18 16 15 16 17 17 17 16 16 16 17 17 17 17 18 18 19 19 18 17 18 19 19 19 19 19 19 20 20 19 19 19 19 20 20 21 21 22 22 22 22 21 21 21 21 21 21 21 21 21 21 21 21 21 21 21 21 21 21 21 21 21 21 21 21 21 21 22 22 22 22 22 22 22
10 11 12 13 15 16 17 18 18 18 18 18 16 15 15 16 16 16 15 16 16 16 17 17 17 18 18 19 19 19 18 18 19 20 20 19 19 19 19 19 19 19 19 19 19 20 20 21 21 21 22 22 21 21 21 21 21 21 21 21 21 21 21 21 21 21 21 21 21 21 20 20 21 21 21 21 21 21 22 22 22 22 22 22 22
10 11 12 13 15 16 17 17 18 18 18 18 16 14 14 16 15 15 15 15 16 16 16 17 17 17 17 17 17 17 17 17 18 20 20 20 20 19 20 19 19 19 19 19 19 20 20 20 21 21 21 22 22 22 21 21 21 21 21 21 21 21 21 21 21 21 21 21 21 21 20 20 21 21 21 21 22 22 22 22 22 21 21 21 20
11 12 13 14 15 16 17 17 17 17 18 18 17 15 14 15 15 14 15 15 15 16 16 16 16 17 16 16 16 16 17 17 18 18 19 20 20 20 20 20 19 19 19 19 19 20 20 20 20 20 21 21 22 22 21 21 21 21 21 21 21 21 21 21 21 20 20 20 20 21 21 21 21 21 22 22 22 22 22 22 21 21 21 20 20
11 12 13 14 15 16 16 16 17 17 17 18 17 15 14 14 14 14 15 15 15 15 15 15 16 16 16 16 16 16 17 18 18 18 18 19 20 21 20 20 20 19 19 19 19 19 19 19 20 20 21 21 21 21 21 21 21 21 21 21 21 21 21 21 20 20 20 20 20 20 21 21 21 22 22 22 22 22 22 21 21 21 21 20 20
11 12 13 13 14 15 15 15 16 16 17 17 17 16 15 14 14 15 15 15 15 15 15 15 16 16 16 16 16 16 16 17 18 18 18 18 19 20 21 20 20 19 19 19 19 19 20 20 20 20 21 21 21 21 21 21 21 21 21 21 21 21 21 21 20 20 20 20 20 20 21 21 21 22 22 22 22 22 22 21 21 21 21 21 21
11 12 12 12 12 13 13 14 15 15 16 17 17 17 16 15 15 15 15 15 15 15 15 15 15 16 16 16 16 16 16 16 17 17 17 17 17 18 19 20 21 20 20 20 20 20 20 20 20 21 21 22 22 21 21 21 20 20 20 20 20 20 20 20 20 20 20 20 20 20 20 20 21 21 21 22 22 21 21 21 21 21 21 21 21
11 11 10 11 11 11 12 13 14 15 15 16 16 17 16 16 15 14 14 15 15 15 15 15 15 16 16 17 17 17 17 18 18 18 18 18 17 17 17 18 19 19 19 20 20 21 21 21 21 21 21 22 22 22 21 21 20 20 20 20 20 20 20 20 20 20 20 20 19 20 20 20 20 20 21 21 20 20 20 20 20 20 20 20 20
9 9 9 9 10 11 11 12 13 13 14 15 15 16 16 16 16 15 15 15 15 15 15 15 15 15 16 16 17 17 19 20 19 18 18 19 19 19 19 18 16 16 16 17 18 19 20 21 21 22 22 22 22 22 21 21 21 20 20 20 19 19 19 19 19 19 20 19 19 19 19 19 19 20 20 20 20 19 19 18 18 19 18 18 18
7 8 8 8 9 10 11 11 12 12 12 13 13 14 14 15 16 16 15 15 15 15 15 14 15 15 15 16 16 17 18 20 20 19 19 20 19 19 20 19 18 16 16 17 17 18 18 19 19 20 21 21 21 22 22 21 21 20 20 20 20 19 19 19 19 19 19 19 19 19 19 19 19 19 19 20 20 19 18 17 17 18 17 17 18
6 6 7 8 8 9 9 10 10 10 11 11 11 12 13 14 15 16 16 16 16 16 15 14 15 15 15 16 16 17 17 18 19 20 20 20 19 19 19 18 17 17 17 18 18 19 19 19 18 18 19 19 19 20 22 21 21 20 20 20 19 20 20 20 19 19 19 19 19 19 19 19 19 19 19 19 19 19 18 18 17 17 17 17 17
5 6 6 7 7 8 8 9 9 9 9 10 10 11 12 13 14 15 16 16 17 16 15 14 14 14 15 15 16 16 16 17 17 18 19 20 19 18 17 17 17 17 17 17 18 18 19 18 18 18 20 20 19 18 20 21 21 20 19 18 18 20 20 20 20 20 19 18 18 18 19 19 19 19 19 19 19 18 18 18 17 17 16 16 16
5 6 6 6 7 7 7 7 8 8 8 9 9 10 10 11 12 13 15 16 17 17 16 15 15 14 15 15 15 15 16 16 16 16 18 19 19 18 17 16 17 17 17 17 18 18 19 19 19 20 21 21 20 18 19 20 21 19 17 17 18 20 20 20 20 19 18 19 18 18 17 18 18 19 18 18 18 18 18 18 17 17 16 16 16
5 6 6 6 6 6 7 6 7 7 7 8 8 9 9 10 11 12 13 15 16 17 16 15 15 15 15 15 15 15 15 16 16 16 16 17 18 17 17 17 17 17 17 16 17 18 19 19 19 19 20 20 20 19 19 20 20 18 17 18 19 20 20 20 19 17 17 18 18 17 16 17 17 17 17 17 17 17 17 17 17 17 17 17 16
6 6 6 6 6 6 6 6 6 6 6 7 7 8 8 9 10 11 12 14 15 17 18 17 16 16 16 16 16 15 15 15 16 16 15 16 16 16 16 17 18 17 16 16 17 18 19 18 17 17 18 18 19 19 19 20 20 19 19 20 20 20 20 19 19 18 17 17 17 16 16 17 17 17 17 17 17 17 17 17 17 17 17 17 17
7 6 6 6 6 5 5 5 5 5 6 6 6 7 8 8 9 10 12 13 15 16 18 18 17 17 17 17 16 16 15 15 15 15 15 15 15 15 15 16 16 15 15 16 17 17 17 16 15 16 17 17 18 19 18 19 20 20 20 20 20 20 19 19 19 18 18 18 18 17 17 17 17 17 17 17 17 17 17 18 17 17 17 16 16
7 6 6 5 5 4 4 4 4 5 5 5 6 7 7 8 9 10 11 13 14 16 18 19 18 17 17 17 17 16 15 15 15 15 15 15 15 15 15 15 15 15 15 16 16 16 15 15 15 15 16 17 17 17 17 17 18 19 19 19 19 19 19 18 18 17 17 17 18 18 18 18 17 17 17 17 17 17 17 17 17 17 17 16 16
6 6 5 5 4 4 4 3 4 4 5 6 6 7 7 8 9 8 8 9 11 13 16 18 19 18 17 17 17 16 15 14 14 14 14 14 15 15 16 16 16 16 16 17 17 16 15 15 15 15 16 16 16 16 16 16 16 16 16 16 17 17 17 17 17 16 17 17 17 18 18 18 18 18 18 17 17 17 17 17 17 17 17 17 16
6 6 5 4 4 3 3 3 3 4 5 6 6 6 6 7 7 4 3 3 5 9 13 16 17 18 18 17 16 15 13 13 13 13 13 13 13 14 14 15 15 15 15 16 16 15 15 15 15 15 16 16 16 16 16 16 15 15 15 14 15 15 15 15 15 15 16 17 17 17 17 17 17 17 17 17 17 17 17 17 17 17 17 17 16
6 5 5 4 3 3 3 3 3 5 5 4 3 3 4 4 3 2 1 1 1 4 8 11 11 13 14 16 15 13 11 10 11 11 12 12 13 13 14 14 14 15 15 15 16 16 15 15 15 15 15 15 15 15 15 16 15 15 15 14 15 14 14 14 14 14 15 16 16 17 17 17 17 17 17 17 17 17 17 17 16 16 16 16 15
5 5 4 3 3 3 2 2 3 4 4 3 2 1 2 2 2 1 0 -0 -0 1 4 6 6 6 7 10 11 9 8 8 10 10 11 12 12 13 13 13 14 14 15 15 15 15 15 15 16 16 15 16 15 15 15 16 16 16 15 15 15 15 15 14 14 14 15 15 16 16 16 16 16 16 16 16 16 17 17 17 17 17 16 16 15
5 5 4 3 3 2 2 2 2 3 4 4 3 2 2 2 2 1 0 0 -0 1 2 3 4 4 4 5 6 5 6 7 9 10 11 11 12 12 13 13 14 14 14 15 15 15 15 15 15 15 15 15 14 14 14 15 15 15 15 15 15 15 15 15 15 15 16 16 15 15 15 15 15 16 16 16 16 16 16 16 16 17 16 15 15
4 4 3 3 3 2 2 2 2 2 2 3 3 3 2 3 3 2 1 1 0 0 1 2 3 3 3 3 4 5 6 7 9 10 10 11 12 12 12 12 13 13 13 14 13 11 11 11 10 10 11 11 10 10 11 11 11 12 13 13 13 13 14 14 14 14 15 15 15 15 15 15 15 15 15 15 16 16 16 16 16 16 16 15 15
4 4 3 3 3 2 1 1 1 1 1 1 1 2 2 2 2 2 2 1 1 0 0 1 2 2 3 3 3 4 5 7 8 8 9 9 10 11 11 11 11 11 12 12 9 6 6 6 6 6 6 6 6 6 7 7 7 8 9 9 10 10 10 10 10 11 12 13 13 13 14 14 15 15 15 15 15 15 15 15 15 15 15 15 14
3 3 2 2 3 3 2 1 1 1 1 1 1 1 1 1 1 1 1 1 1 1 0 0 0 1 2 3 3 3 4 5 6 7 7 8 9 9 9 9 8 9 10 8 5 3 3 3 3 3 3 3 3 3 4 4 4 5 5 6 7 8 7 7 8 9 9 9 10 10 11 11 12 13 13 14 14 14 14 14 14 14 14 14 13
2 2 2 3 3 3 2 1 1 1 1 0 0 0 0 0 0 0 0 1 0 0 0 0 0 0 1 1 2 2 3 4 5 6 7 7 7 8 9 8 7 6 5 3 1 1 2 1 1 1 1 1 1 1 1 2 2 3 3 3 4 5 5 5 6 6 6 7 7 8 8 9 9 10 10 11 12 12 12 13 13 13 13 13 13
3 2 3 3 3 3 2 1 1 1 0 0 0 0 -0 -0 -0 -0 -0 -0 -0 -0 -0 -0 -0 0 -0 -0 0 0 1 2 3 4 5 5 7 9 8 5 3 2 1 0 -0 -0 -0 -0 -0 -0 -1 -1 -0 -0 -0 0 0 1 1 2 2 2 2 3 4 4 4 4 5 5 6 7 7 7 8 8 9 9 9 10 11 11 11 11 11
4 3 3 4 4 3 3 2 1 1 0 0 0 -0 -0 -0 -0 -1 -1 -1 -1 -1 -1 -1 -1 -0 -0 -0 -0 -0 -0 -0 0 1 2 2 4 5 3 0 -1 -1 -1 -1 -1 -2 -2 -2 -2 -2 -2 -2 -2 -2 -2 -1 -1 -1 -1 -0 0 0 0 1 1 2 2 2 3 4 5 5 5 6 6 6 7 7 7 8 8 9 9 9 9
5 4 4 4 4 4 3 2 2 1 1 0 0 -0 -0 -0 -1 -1 -1 -1 -2 -2 -2 -2 -2 -1 -1 -1 -0 -1 -1 -1 -1 -1 -1 -1 -0 -0 -1 -2 -2 -2 -2 -2 -2 -2 -3 -3 -3 -3 -3 -3 -3 -3 -3 -3 -3 -2 -2 -2 -2 -1 -1 -1 -0 -0 0 1 1 2 3 3 4 4 5 5 6 6 6 6 6 7 7 7 8
5 5 5 4 4 4 4 3 2 2 1 1 0 -0 -0 -0 -1 -1 -1 -1 -2 -2 -2 -3 -3 -2 -2 -2 -1 -1 -1 -1 -1 -1 -2 -2 -2 -3 -3 -3 -3 -3 -3 -3 -3 -3 -3 -3 -4 -4 -4 -4 -4 -4 -4 -4 -4 -3 -3 -3 -3 -3 -2 -2 -2 -2 -1 -1 -0 0 1 2 2 3 4 4 5 5 5 6 6 6 6 6 6
6 6 5 5 5 4 4 4 3 3 2 2 1 0 -0 -0 -0 -1 -1 -1 -2 -2 -2 -3 -3 -3 -3 -3 -2 -2 -2 -2 -2 -3 -3 -3 -3 -3 -3 -3 -4 -4 -3 -4 -4 -4 -4 -4 -4 -4 -4 -4 -4 -4 -4 -4 -4 -4 -4 -4 -4 -3 -3 -3 -3 -3 -2 -2 -1 -1 0 1 2 2 3 4 5 5 5 5 5 5 5 5 6
7 7 6 6 6 5 5 4 4 3 3 2 2 1 1 0 -0 -0 -1 -1 -1 -2 -2 -3 -3 -3 -3 -3 -3 -3 -3 -3 -3 -3 -3 -4 -4 -4 -4 -4 -4 -4 -4 -4 -4 -4 -4 -5 -5 -5 -5 -5 -5 -5 -5 -5 -5 -5 -5 -5 -5 -4 -4 -4 -4 -4 -3 -3 -2 -1 -1 0 1 2 2 3 4 4 5 5 5 5 5 5 5
8 7 7 7 7 7 6 5 4 4 3 3 3 2 2 2 1 1 0 -0 -1 -1 -2 -2 -3 -3 -3 -3 -3 -3 -3 -3 -4 -4 -4 -4 -4 -5 -5 -5 -5 -5 -5 -5 -5 -5 -5 -5 -5 -5 -5 -5 -5 -5 -5 -5 -5 -5 -5 -5 -6 -5 -5 -5 -5 -5 -4 -4 -3 -2 -1 -0 1 1 2 3 3 4 4 4 4 4 4 5 5
8 8 8 8 7 7 7 6 6 4 4 3 3 3 3 3 3 2 1 1 0 -1 -1 -1 -2 -2 -3 -3 -3 -3 -4 -4 -4 -4 -4 -5 -5 -5 -5 -5 -5 -5 -5 -6 -5 -6 -6 -6 -6 -6 -6 -6 -6 -6 -6 -6 -6 -6 -6 -6 -6 -6 -6 -6 -6 -5 -5 -4 -3 -2 -1 -0 0 1 2 3 3 3 4 4 4 4 4 4 4
8 8 8 8 7 7 7 7 7 6 5 4 5 4 4 4 3 3 3 2 1 0 0 -0 -0 -1 -1 -2 -2 -3 -3 -4 -4 -4 -4 -4 -5 -5 -5 -5 -5 -5 -6 -6 -6 -6 -6 -6 -6 -6 -6 -6 -6 -6 -6 -6 -6 -6 -6 -7 -7 -7 -7 -6 -5 -5 -5 -5 -4 -2 -1 -0 0 1 2 2 3 3 3 4 4 4 4 4 4
8 8 7 7 7 7 6 6 7 6 6 5 6 5 5 4 4 4 3 3 2 1 1 1 0 0 -0 -1 -1 -1 -2 -2 -3 -3 -3 -4 -4 -4 -4 -4 -4 -5 -5 -5 -5 -6 -6 -6 -6 -6 -6 -6 -6 -7 -7 -7 -7 -7 -7 -7 -7 -7 -7 -6 -5 -5 -5 -5 -4 -2 -1 -0 0 1 2 2 2 3 3 3 4 4 4 4 4
7 7 7 7 7 6 6 6 6 6 6 6 5 5 5 4 4 3 3 3 2 2 2 1 1 1 0 -0 -0 -1 -1 -1 -2 -2 -2 -3 -3 -3 -3 -3 -3 -4 -4 -4 -5 -5 -5 -5 -6 -6 -6 -6 -7 -7 -7 -7 -7 -7 -7 -7 -7 -7 -6 -6 -5 -4 -4 -4 -4 -2 -1 -1 0 1 1 2 2 2 3 3 4 4 4 4 4
7 7 7 7 7 6 6 6 6 6 5 5 5 5 4 4 4 3 3 3 3 2 2 2 1 1 0 0 0 -0 -0 -1 -1 -1 -2 -2 -2 -2 -3 -3 -3 -3 -3 -4 -4 -4 -5 -5 -5 -6 -6 -6 -6 -7 -7 -7 -7 -7 -7 -8 -7 -6 -6 -5 -4 -3 -3 -3 -2 -2 -1 -1 0 1 1 1 2 2 3 3 3 4 4 4 4
6 6 6 6 6 6 6 6 6 6 5 5 4 4 4 4 3 3 3 3 2 2 2 2 1 1 0 0 0 -0 -0 -0 -1 -1 -1 -2 -2 -2 -2 -2 -2 -2 -3 -3 -3 -4 -4 -4 -5 -5 -6 -6 -7 -7 -7 -7 -7 -7 -7 -7 -6 -5 -5 -4 -3 -3 -2 -2 -1 -1 -1 -0 0 0 0 1 2 2 3 3 3 4 4 4 4
6 6 6 6 6 6 6 5 5 5 5 5 4 4 4 3 3 3 3 2 2 2 2 1 1 1 0 -0 -0 -0 -0 -0 -1 -1 -1 -2 -2 -2 -2 -2 -2 -2 -3 -3 -3 -3 -4 -4 -5 -5 -6 -6 -7 -7 -7 -7 -6 -6 -6 -6 -5 -5 -4 -4 -3 -3 -2 -1 -0 -0 -0 -0 0 0 0 0 1 1 2 3 3 3 4 4 4
5 5 5 5 5 5 5 5 5 5 5 4 4 4 3 3 3 3 2 2 2 2 1 1 1 0 -0 -1 -1 -1 -1 -1 -1 -1 -2 -2 -2 -2 -3 -3 -3 -3 -3 -3 -3 -3 -3 -4 -4 -5 -5 -6 -6 -7 -7 -7 -6 -6 -6 -6 -5 -4 -3 -3 -3 -2 -2 -1 0 0 0 0 0 0 0 0 0 1 1 2 2 3 3 4 4
5 5 5 5 5 5 5 4 4 4 4 4 3 3 3 2 2 2 2 1 1 1 1 1 1 0 -0 -1 -1 -1 -1 -1 -1 -2 -2 -2 -2 -3 -3 -3 -3 -3 -3 -3 -3 -3 -3 -4 -4 -5 -5 -5 -6 -6 -7 -6 -6 -6 -6 -6 -5 -4 -3 -2 -2 -2 -1 -0 0 0 1 1 0 0 0 0 0 0 0 1 2 2 2 3 3
5 4 4 4 4 4 4 4 4 3 3 3 3 2 2 2 2 1 1 1 1 0 0 0 -0 -0 -1 -1 -1 -2 -2 -2 -2 -2 -2 -2 -3 -3 -3 -3 -3 -3 -3 -3 -3 -3 -4 -4 -4 -5 -5 -6 -6 -6 -7 -6 -6 -6 -6 -5 -5 -4 -3 -3 -2 -2 -1 -1 -0 0 0 1 1 0 0 0 -0 -0 0 1 1 1 2 2 3
Height
729 726 722 720 718 716 715 715 715 713 712 712 710 707 708 712 717 720 720 720 722 728 731 730 730 729 730 732 733 733 733 732 732 735 737 738 739 741 743 745 747 750 752 755 757 759 762 764 766 767 769 770 770 771 771 772 772 772 774 774 774 775 776 776 777 777 777 778 778 779 779 780 780 780 781 781 781 781 781 781 781 781 781 780 781
727 724 720 718 715 713 711 711 711 711 709 709 709 709 707 709 713 715 715 716 718 724 727 727 726 725 725 728 730 731 730 728 728 730 732 733 733 734 737 739 741 744 747 749 752 755 758 760 762 764 766 767 767 767 767 768 768 769 769 770 771 771 772 772 773 773 773 774 775 775 776 777 777 777 778 778 779 779 779 779 779 779 779 778 777
726 722 719 715 712 710 709 708 707 707 706 705 705 706 707 708 709 709 711 714 715 717 720 722 723 721 719 722 725 728 728 726 724 725 727 727 728 729 732 735 737 739 741 743 746 750 753 756 758 761 762 763 763 764 764 764 765 765 765 766 767 768 768 769 769 769 769 770 771 771 772 773 773 773 774 775 775 776 775 776 776 776 776 776 775
724 721 718 714 710 708 706 705 704 703 702 700 699 699 702 703 703 703 705 710 713 713 714 716 718 718 717 717 720 724 726 724 721 721 722 724 725 726 728 731 734 735 736 738 741 744 747 750 753 756 759 760 760 761 761 761 761 761 762 762 763 764 765 765 765 765 766 766 767 767 768 769 769 769 770 771 772 772 772 772 772 772 772 772 772
723 720 716 712 708 706 704 702 701 699 698 696 694 693 695 697 698 698 699 704 708 710 709 709 710 713 714 714 715 717 719 720 719 717 718 720 721 722 723 726 729 731 733 735 737 740 742 745 748 751 754 755 756 757 757 758 759 759 759 759 759 760 761 761 761 761 762 762 763 764 765 765 765 766 766 767 767 767 768 768 768 768 768 768 768
721 718 715 710 706 704 702 700 698 696 695 693 691 690 691 693 696 697 696 699 703 704 704 704 704 707 709 709 710 711 712 715 717 715 714 715 716 718 720 722 724 727 730 732 735 737 739 741 744 747 749 750 752 753 754 755 756 756 756 756 757 757 757 758 758 758 758 758 759 760 760 761 761 761 762 762 763 763 763 764 764 764 764 764 764
719 717 713 709 705 702 700 698 696 694 692 691 689 689 689 690 693 694 694 695 697 697 698 700 701 702 703 704 706 707 706 708 712 715 713 712 712 713 715 718 721 723 726 729 732 734 735 737 740 742 744 745 747 749 751 751 752 753 753 754 754 754 754 754 754 754 754 754 754 755 756 757 757 757 758 759 759 758 758 759 759 759 760 760 759
718 715 712 708 704 700 698 696 694 692 690 688 687 686 685 685 687 689 690 690 691 692 693 695 697 698 699 700 701 702 703 702 704 710 712 711 710 709 709 712 715 718 722 725 728 730 731 733 735 738 740 741 742 745 747 748 749 749 750 752 752 752 752 752 751 751 750 750 750 750 751 753 753 754 755 756 755 753 753 754 754 754 756 756 755
717 714 711 707 702 699 696 694 692 690 688 685 684 684 683 681 681 683 685 686 687 688 688 689 691 692 693 695 696 698 699 698 698 702 705 707 708 706 705 708 711 714 718 721 724 726 727 728 730 732 735 736 738 740 742 744 745 746 747 748 749 750 750 750 749 748 748 747 746 746 748 748 748 750 751 750 748 748 749 751 750 750 752 752 752
715 712 709 705 701 697 694 692 690 688 686 683 682 682 681 678 677 678 681 683 683 683 683 684 686 688 690 691 692 693 695 697 696 697 698 701 704 704 703 705 708 711 713 716 720 722 724 725 726 727 729 731 734 736 738 739 741 741 742 743 744 745 746 747 747 746 746 744 743 743 743 742 742 744 744 744 744 745 746 746 746 746 748 749 748
713 710 706 703 699 695 693 690 688 686 684 681 680 680 679 677 674 675 678 680 681 680 679 680 682 685 687 688 689 691 694 697 697 696 695 697 699 699 700 703 706 708 710 712 715 717 719 721 722 723 725 726 729 731 733 735 736 737 738 739 740 740 741 742 743 743 743 742 741 740 739 737 737 738 739 740 741 741 741 741 742 743 744 745 744
711 707 703 700 697 693 691 689 687 685 683 681 679 678 679 676 673 673 674 675 677 677 677 677 679 681 683 684 687 689 692 695 698 698 696 695 695 695 696 699 703 705 707 709 711 712 714 716 718 719 720 721 724 726 729 731 732 733 734 735 735 736 736 737 738 739 740 739 739 738 736 734 734 735 735 736 737 737 737 737 738 738 739 740 740
709 705 701 699 695 692 691 689 687 685 682 680 678 677 677 675 672 671 670 671 672 673 674 676 677 678 679 681 684 688 689 691 695 698 698 697 696 695 695 697 699 701 703 705 707 708 709 711 713 714 715 716 719 722 725 727 729 730 731 732 732 732 732 732 733 735 736 736 736 734 732 732 732 731 732 734 735 735 735 735 734 734 735 735 734
708 704 701 699 696 693 691 688 687 685 682 680 677 675 676 675 672 669 668 668 669 669 670 672 674 675 676 677 681 685 687 689 691 694 697 698 698 695 694 695 695 696 698 700 702 703 703 705 707 708 709 711 714 717 720 723 724 726 727 728 728 728 727 728 729 730 731 732 731 729 729 730 730 730 732 734 734 733 733 733 733 732 732 731 730
708 705 702 700 697 694 692 689 687 685 682 679 677 675 674 674 674 671 669 668 666 665 666 668 670 672 672 672 675 679 682 686 688 690 693 696 698 696 694 693 693 693 694 695 696 697 698 699 700 702 704 706 708 711 714 717 719 721 722 723 723 723 723 723 723 724 725 726 726 725 726 728 729 729 730 731 731 731 730 731 731 731 730 730 730
709 706 704 701 699 696 694 691 688 685 682 679 677 676 674 674 674 673 671 669 667 665 665 666 668 669 669 670 671 674 676 679 681 684 688 693 695 695 694 693 692 692 693 694 695 695 694 694 694 695 698 700 702 705 708 712 715 717 717 718 718 719 719 719 719 720 721 721 722 723 723 725 727 727 727 727 727 727 728 728 728 729 729 728 728
710 708 705 702 700 697 695 692 689 686 683 680 678 676 675 674 673 672 670 669 668 667 667 667 668 668 668 668 669 670 671 672 673 675 680 685 689 691 692 692 692 694 695 696 698 698 696 694 692 691 692 693 696 698 702 706 710 712 713 713 714 715 715 715 716 717 718 719 720 721 722 723 725 724 724 724 723 724 726 726 726 727 727 727 725
712 709 706 703 700 697 695 692 689 687 684 682 680 677 675 674 672 671 669 668 667 667 668 669 669 667 666 666 666 666 666 667 667 667 671 677 682 685 687 687 688 692 695 697 698 698 698 697 694 692 690 691 693 694 697 701 705 707 708 709 710 711 711 711 712 713 714 716 718 720 721 721 722 721 720 720 720 721 722 722 723 725 726 724 723
713 710 707 703 700 698 695 693 690 687 685 683 681 679 677 674 672 670 668 666 665 665 667 669 670 667 665 663 663 663 663 664 665 663 664 669 676 680 682 683 684 687 691 693 694 694 695 697 697 695 693 693 695 695 695 697 700 701 703 705 706 706 706 706 707 708 711 712 714 716 716 715 715 715 715 714 715 716 717 718 721 723 722 721 720
714 711 707 704 701 698 695 693 690 688 685 683 681 680 678 675 672 670 667 665 663 662 664 667 669 668 666 663 661 660 661 662 664 663 661 664 669 674 678 680 682 685 687 689 691 691 692 694 696 697 696 694 695 696 695 694 695 696 699 703 703 701 700 702 703 704 706 708 709 709 709 710 711 710 710 709 709 711 711 713 716 717 718 717 717
714 711 707 704 701 698 695 693 690 687 685 682 680 679 677 675 673 670 668 666 663 661 661 663 666 667 666 663 660 659 659 659 661 663 662 662 664 668 672 675 677 679 681 682 683 686 688 690 691 693 692 690 692 694 694 692 691 692 696 700 698 696 696 698 699 700 701 703 703 704 705 707 708 707 706 706 706 706 707 708 709 710 711 712 712
713 710 707 704 701 698 695 693 690 687 684 681 679 678 676 675 673 671 669 666 664 662 660 661 663 664 663 661 660 660 659 658 659 662 664 663 663 664 666 669 672 674 675 675 677 680 683 686 687 687 687 687 687 688 688 688 687 687 691 695 694 693 694 694 696 697 698 698 699 701 702 704 704 704 703 702 702 703 703 704 704 704 705 706 706
711 709 707 704 701 698 695 692 689 686 683 680 678 676 675 673 672 670 668 666 664 662 660 659 660 660 660 660 660 660 660 660 660 661 663 664 664 664 664 665 668 671 674 676 677 678 680 681 683 683 684 684 683 682 682 684 683 683 686 690 690 690 691 691 692 694 695 696 697 698 699 700 700 699 699 698 699 699 700 700 700 700 701 702 702
711 709 707 704 701 698 695 691 688 685 682 680 677 675 674 672 670 668 666 664 662 660 658 657 657 658 658 658 659 659 660 660 661 662 662 663 664 665 665 665 668 671 673 675 677 677 676 677 678 680 681 681 680 680 680 682 682 682 684 686 687 687 687 687 688 690 691 692 693 694 694 694 694 693 694 695 696 696 696 695 696 696 697 698 699
711 709 706 704 702 699 695 691 687 683 680 678 676 675 673 671 669 667 665 662 660 657 655 654 653 654 655 656 657 658 659 660 661 661 661 662 663 664 664 665 666 668 669 670 671 672 673 675 677 679 680 680 679 679 680 682 683 682 682 683 684 684 684 684 685 687 687 688 689 689 689 689 688 688 690 692 693 692 692 692 692 693 693 694 694
712 709 707 705 702 700 696 691 687 682 679 677 676 675 674 672 669 667 665 662 659 656 654 651 649 650 651 652 655 657 658 659 659 660 660 660 660 661 661 662 663 663 662 662 664 667 670 673 677 679 680 680 680 680 682 684 686 684 683 682 682 681 680 680 681 682 683 683 684 684 684 684 685 685 687 688 688 689 689 689 689 689 689 689 688
713 710 708 706 703 700 696 692 687 683 679 677 676 675 674 673 672 670 668 665 661 658 655 650 647 646 647 650 653 655 657 658 658 658 659 659 658 658 658 658 659 660 660 660 659 661 666 671 676 679 680 681 681 681 683 685 686 685 685 685 683 681 680 680 680 680 680 680 680 680 680 681 682 683 684 684 685 685 685 685 685 685 685 684 684
714 711 709 707 704 701 698 693 689 686 683 681 680 678 677 676 676 675 674 671 666 661 657 653 649 647 646 647 651 654 656 658 658 659 659 658 657 657 657 658 659 660 661 661 659 661 665 670 675 677 678 679 680 681 683 685 685 685 685 686 685 684 684 684 684 682 680 679 678 678 678 679 679 679 680 681 681 682 683 682 682 682 682 682 681
715 713 711 709 706 703 700 696 692 689 688 687 686 685 683 681 680 679 678 675 671 666 661 657 655 652 649 649 652 654 656 658 659 660 659 658 657 657 658 659 660 661 662 662 662 664 666 669 672 675 677 678 679 681 683 684 684 684 685 685 685 685 685 685 684 682 680 678 677 677 676 676 676 676 677 677 677 679 680 680 679 679 679 679 678
717 715 712 710 708 706 703 699 696 694 692 691 691 689 688 686 684 683 681 678 674 670 665 661 659 656 654 655 657 658 659 660 660 660 660 659 658 658 658 659 660 661 663 664 665 665 666 668 670 674 677 679 680 682 684 685 685 685 685 685 686 687 687 686 683 680 678 676 675 675 674 674 674 674 674 674 674 675 676 676 676 676 675 675 674
720 718 715 713 711 709 706 703 700 698 696 695 694 692 691 689 687 686 685 682 677 674 671 667 662 659 658 660 661 662 662 662 662 661 660 659 658 658 658 659 660 662 663 663 665 666 668 670 672 675 678 680 682 683 684 684 684 685 685 686 687 688 687 686 683 679 677 675 673 673 672 672 671 671 671 671 671 672 672 673 673 672 672 671 670
724 721 719 717 715 712 711 708 705 703 701 700 698 695 693 691 689 688 688 686 682 680 677 673 668 663 662 663 664 664 664 664 662 662 661 661 660 659 659 660 662 663 663 663 665 669 672 674 676 678 681 683 684 684 684 684 685 686 687 687 687 686 686 685 683 679 677 675 673 672 671 671 670 669 669 668 668 668 668 668 669 669 668 668 667
726 724 722 720 718 716 714 712 710 708 706 704 702 699 697 695 693 692 691 689 687 684 683 680 675 670 667 667 667 668 668 667 665 665 664 664 663 663 663 664 665 666 665 667 671 675 678 681 683 684 685 686 686 686 685 686 687 687 688 688 688 687 685 684 682 679 677 675 674 672 671 671 670 668 668 667 666 666 665 665 665 665 665 665 665
729 727 725 723 721 720 718 716 714 712 710 709 706 704 701 700 698 696 694 693 691 688 687 686 682 677 674 672 671 672 673 672 671 670 668 668 668 667 666 667 668 670 671 674 678 682 684 686 688 688 688 688 687 687 687 688 688 689 689 689 689 687 685 683 681 679 678 676 674 673 672 671 670 669 668 668 666 665 664 664 663 663 663 663 662
730 729 727 726 724 723 721 720 718 716 714 712 710 708 706 704 702 701 700 699 697 695 693 690 687 684 681 678 677 678 679 678 677 675 673 673 672 670 670 672 675 677 680 683 686 688 689 690 691 691 690 690 690 690 690 691 692 691 691 690 689 687 685 683 682 681 679 677 676 675 674 673 671 670 670 669 668 667 665 664 663 662 662 662 661
731 730 729 728 727 726 725 724 722 720 718 716 714 712 710 708 706 705 705 704 701 698 696 693 691 689 686 684 684 685 685 684 684 681 680 679 676 674 677 682 686 688 690 692 693 694 695 695 695 695 694 693 693 693 694 694 694 694 693 692 690 689 687 686 684 683 681 679 677 676 675 674 673 672 671 669 668 668 667 665 664 662 661 661 661
733 732 731 730 729 728 727 726 725 723 721 719 718 716 713 712 710 709 707 705 703 700 698 696 694 691 689 689 691 692 691 691 690 688 686 685 682 681 685 691 693 694 696 698 699 699 700 700 700 700 699 698 698 697 697 697 696 695 694 693 692 691 689 688 686 684 682 680 679 678 678 677 676 674 673 671 669 668 667 665 664 662 661 661 660
735 733 732 732 731 730 729 728 727 726 724 722 721 720 718 716 714 711 709 708 706 704 703 702 699 698 696 697 698 698 696 694 692 691 691 691 690 690 693 696 697 699 701 703 703 703 704 704 704 703 703 702 701 701 700 699 698 697 696 694 693 692 690 689 687 686 684 683 682 681 680 679 677 676 674 673 671 669 667 665 664 662 661 660 659
735 734 734 733 732 731 731 730 728 727 726 725 724 723 722 720 718 715 714 712 711 710 709 707 706 706 706 705 704 702 700 698 698 699 700 700 699 699 700 700 702 703 705 706 706 706 706 707 706 706 705 704 703 703 702 701 700 699 698 696 695 693 692 690 689 688 687 685 684 683 681 680 678 676 675 673 672 669 667 665 664 663 662 660 659
735 735 734 733 733 732 731 730 730 729 728 728 727 726 725 724 722 721 719 718 717 716 715 714 714 714 714 712 710 708 707 707 708 709 709 707 706 706 706 706 707 708 709 709 710 710 710 710 709 708 708 707 706 705 705 704 703 702 700 699 698 696 695 694 693 691 690 688 686 684 682 680 678 676 674 673 672 670 668 666 665 663 662 660 659
736 736 735 734 733 733 731 731 731 730 730 730 729 728 728 727 726 725 724 723 723 722 722 721 722 722 721 720 718 716 715 715 715 714 713 712 712 712 711 712 713 713 714 714 714 714 714 714 713 712 711 710 709 708 707 706 705 704 702 701 700 698 697 696 694 693 691 689 687 685 683 681 678 676 674 672 671 669 668 666 664 663 662 660 658
737 736 735 735 734 733 732 732 731 731 731 731 730 730 730 730 729 728 728 727 727 727 726 726 727 727 726 725 724 722 720 720 720 718 717 717 717 716 717 717 717 717 718 718 718 718 717 717 716 715 714 713 712 711 709 708 707 705 704 702 701 699 698 696 695 693 692 690 688 686 683 681 678 676 674 672 670 669 667 665 664 663 662 660 658
737 737 736 736 735 734 734 733 732 732 732 731 731 731 731 731 730 730 730 730 730 729 729 729 730 730 730 729 727 726 725 724 724 723 722 722 721 721 721 721 721 721 721 721 720 720 720 719 719 718 717 716 715 714 713 711 710 708 706 705 703 701 699 697 695 693 692 690 688 686 684 681 678 676 674 672 670 669 667 665 664 662 661 659 657
738 738 737 737 736 736 735 735 734 734 733 733 733 733 732 732 732 732 732 732 732 731 731 732 732 732 731 730 729 728 728 728 727 727 726 725 725 724 725 725 724 724 724 724 724 723 723 722 722 721 720 719 718 717 716 714 713 711 709 707 705 703 701 699 697 695 694 692 690 687 685 682 679 677 674 672 670 669 667 665 663 661 659 658 657
739 739 738 738 737 737 737 736 735 735 735 734 734 734 734 734 734 734 734 734 734 733 733 734 733 733 733 732 732 731 731 730 730 729 728 728 728 728 728 728 727 727 727 727 727 727 726 726 725 724 723 722 720 719 719 717 716 714 712 711 709 706 704 702 700 698 696 694 692 689 686 683 681 678 676 673 671 669 667 665 663 660 658 658 657
740 740 740 739 739 738 738 738 737 737 736 736 736 735 735 735 735 736 736 736 736 736 736 736 736 736 735 735 735 734 733 733 732 731 731 731 730 730 730 730 731 731 731 731 731 730 730 729 729 728 726 725 724 723 722 720 719 717 715 713 712 709 707 704 702 699 698 696 694 691 688 685 682 680 677 674 672 670 668 665 663 661 659 658 656
741 741 741 740 740 740 739 739 739 738 738 738 737 737 737 737 737 737 737 737 737 737 737 737 737 737 737 737 736 735 735 734 734 733 733 733 733 733 733 733 733 733 733 733 733 733 732 731 731 730 729 728 727 726 724 722 720 718 717 715 713 710 707 705 703 700 698 696 694 691 689 686 683 681 678 675 672 670 668 666 664 662 660 658 656
742 742 742 742 741 741 741 741 740 740 739 739 739 739 739 739 739 738 738 738 738 738 738 738 738 738 738 737 737 736 736 735 735 735 735 735 735 735 735 735 735 735 735 735 735 734 733 733 732 732 731 730 728 727 725 723 721 719 717 715 713 711 708 705 703 700 698 696 694 691 689 686 684 682 679 676 673 670 668 666 664 662 660 658 657
743 743 743 743 743 743 742 742 742 742 741 741 741 741 741 741 741 741 741 741 740 740 740 740 740 739 739 739 739 738 738 737 737 737 737 737 737 738 737 737 737 737 737 736 736 736 735 735 734 733 732 731 730 728 726 724 722 719 717 716 714 711 708 705 702 700 698 695 693 690 688 686 685 683 680 677 674 671 669 667 665 663 661 659 658
743 743 744 744 744 744 744 743 744 743 743 743 743 743 743 743 743 743 743 743 743 743 742 742 742 742 742 742 741 741 741 741 741 741 741 740 740 740 740 739 739 739 738 738 738 737 737 736 735 734 733 732 731 729 727 725 722 720 718 716 714 710 707 704 701 699 696 694 692 689 687 686 685 683 680 677 674 672 670 668 665 664 662 660 658
745 744 745 745 745 745 745 745 745 745 745 745 745 745 745 745 745 745 745 745 745 745 745 745 745 745 744 744 744 744 744 744 744 743 743 743 743 742 742 741 741 740 740 740 739 739 738 738 737 736 734 733 732 730 727 726 724 721 719 717 713 710 706 703 700 698 696 693 691 689 687 686 685 683 680 678 675 673 671 669 666 664 663 661 659
Wind_Speed
27 28 27 24 23 24 22 20 20 22 31 38 43 46 44 40 42 44 45 43 39 36 31 27 28 32 34 36 36 37 39 38 36 35 35 33 31 31 32 31 31 31 30 29 30 30 29 30 30 30 30 29 29 28 27 26 26 26 26 25 25 24 23 20 12 9 14 19 19 19 19 17 16 16 16 17 18 18 20 22 23 24 26 29 29
27 28 28 26 26 25 23 22 21 20 24 31 37 44 46 44 43 43 41 38 36 35 35 33 34 36 37 37 36 37 39 38 37 36 36 37 36 35 35 35 33 32 31 30 30 29 29 29 29 31 31 31 30 29 29 28 26 27 27 26 25 25 26 24 18 12 13 18 22 22 22 21 20 20 19 19 19 18 18 21 22 24 25 27 27
27 27 28 29 28 26 24 22 22 23 24 25 28 37 41 38 38 39 36 33 33 37 40 39 37 36 37 38 36 34 35 37 39 39 39 40 38 35 36 36 34 33 33 32 31 30 30 29 30 30 30 31 31 30 29 29 28 27 27 28 27 26 27 26 22 17 15 17 20 21 21 22 23 22 21 21 21 20 20 21 22 23 24 24 26
26 26 29 31 29 26 24 23 23 23 24 25 24 26 29 31 35 39 35 31 33 37 40 39 36 31 32 36 37 33 32 35 39 40 40 40 38 36 34 33 32 33 33 33 33 32 31 31 31 30 29 30 31 31 31 30 29 29 28 28 29 29 28 27 26 22 17 16 19 21 21 22 23 23 22 21 22 23 24 24 24 26 26 26 27
26 27 29 31 29 25 24 23 23 23 24 23 20 18 20 26 33 36 34 32 35 39 39 37 36 32 32 36 38 35 34 36 38 41 42 42 41 40 37 34 33 33 32 32 32 32 32 32 32 31 30 30 30 31 32 32 29 28 28 28 29 30 30 29 28 26 22 19 18 20 21 22 22 22 23 22 23 23 24 25 26 27 28 29 29
26 27 28 29 29 25 23 24 23 22 23 21 16 14 17 24 31 34 36 35 36 40 40 37 39 40 38 38 38 37 37 36 37 41 44 44 42 41 40 38 37 36 34 32 31 31 31 31 32 32 32 32 31 30 30 32 31 29 29 28 28 28 30 30 29 28 26 23 21 20 22 22 22 22 23 24 23 23 23 24 25 27 29 30 31
26 26 27 28 28 25 23 24 24 22 22 19 13 13 16 23 29 33 36 35 34 38 39 36 40 45 42 38 37 38 38 35 36 38 40 42 43 40 39 39 39 38 36 34 32 31 33 32 31 33 34 35 35 32 29 30 32 32 31 29 27 27 27 29 30 29 27 25 23 22 22 23 24 24 23 23 24 25 25 24 23 26 28 29 30
26 26 26 27 27 26 24 24 23 21 20 17 12 14 16 21 25 28 31 33 32 35 37 35 37 41 41 38 37 38 38 37 37 39 38 38 40 40 39 39 39 38 37 36 34 33 34 35 34 34 35 36 37 35 31 30 30 32 33 31 28 27 26 26 27 27 27 25 24 23 22 22 23 24 23 23 23 25 26 25 24 25 26 27 28
25 25 25 26 27 26 24 23 21 20 20 17 13 14 17 19 24 27 27 31 32 32 33 33 33 36 38 37 35 37 39 38 37 40 40 38 39 39 39 39 38 37 37 37 36 35 34 34 35 36 36 36 37 37 35 33 30 30 31 32 31 29 28 26 25 25 25 23 22 22 21 20 22 23 23 25 26 25 24 23 23 23 23 25 27
24 24 24 25 26 26 23 21 19 19 20 18 13 11 15 16 23 26 24 26 29 30 31 31 30 31 35 36 34 34 36 36 35 38 40 39 40 40 38 37 36 36 37 36 36 37 37 35 35 36 37 37 37 38 38 38 37 34 32 32 33 31 29 27 25 25 23 21 21 21 19 19 23 25 25 27 28 26 25 23 22 21 19 19 22
25 23 24 24 25 24 21 18 18 19 19 17 13 11 13 15 21 24 22 22 27 30 29 28 28 29 30 32 31 30 30 30 31 37 41 43 43 40 38 37 36 37 38 38 39 40 40 39 37 36 37 37 38 39 41 41 42 41 38 34 33 33 31 29 27 25 23 21 21 21 20 21 24 26 27 27 26 27 27 26 24 21 18 14 14
25 22 22 23 23 21 19 18 18 18 19 18 14 9 12 14 18 21 21 21 25 28 29 28 27 26 27 29 28 27 28 27 27 28 33 42 45 41 39 39 38 37 38 38 40 41 40 39 37 35 35 37 39 40 41 43 44 44 43 40 35 34 33 32 30 28 26 23 22 22 23 23 23 25 27 27 26 27 27 26 26 24 21 18 16
24 22 21 22 21 19 18 18 19 18 19 19 16 10 9 13 16 19 22 22 23 24 26 27 26 24 24 26 27 29 30 29 28 27 26 34 41 38 37 38 39 39 39 38 38 39 39 37 35 34 34 36 39 40 39 42 44 45 46 45 41 38 37 36 34 31 30 27 25 26 28 25 22 24 25 24 24 26 25 26 27 25 23 23 24
24 22 21 22 21 20 20 19 19 19 19 19 18 14 11 13 16 19 21 22 22 22 23 25 25 23 22 24 25 28 30 29 28 27 26 31 37 39 37 36 37 39 40 39 39 40 41 40 37 35 34 34 37 40 40 41 42 44 47 47 46 44 42 42 40 37 35 34 31 31 31 28 24 23 20 17 19 21 22 22 23 24 25 27 28
24 22 22 23 22 22 23 22 21 20 19 18 18 15 12 12 14 17 18 20 22 24 25 25 24 23 24 26 27 27 28 28 26 25 23 25 30 36 37 36 36 39 41 42 42 42 43 42 39 37 36 36 37 39 42 42 41 41 43 45 46 46 46 47 46 44 42 41 40 39 35 29 25 23 20 17 17 16 15 15 16 17 20 23 25
23 22 22 23 23 23 24 23 23 22 20 18 17 14 12 12 13 14 15 16 19 22 24 24 23 24 26 29 30 29 29 29 31 33 28 21 22 26 29 30 27 24 27 33 38 41 43 43 41 38 37 38 39 41 43 43 40 38 38 41 44 44 44 46 48 48 47 46 44 43 40 33 26 23 21 19 18 16 14 14 15 14 14 15 17
24 23 22 22 23 23 23 23 22 21 20 19 18 17 15 13 13 13 13 13 16 20 21 22 22 23 25 29 30 32 32 32 34 37 34 27 23 24 28 32 27 20 20 22 25 29 33 37 39 40 40 40 42 43 43 43 41 38 35 35 37 38 40 43 45 46 48 47 45 43 43 39 33 30 28 24 22 20 17 18 19 16 12 10 11
25 24 24 24 24 24 23 23 22 21 20 19 19 20 20 17 15 14 13 12 14 17 18 19 21 21 22 25 27 31 34 34 34 34 33 31 29 25 27 34 35 29 28 29 29 29 28 28 28 29 31 34 38 42 43 42 41 38 34 32 30 29 33 37 38 38 41 43 43 44 43 43 43 43 41 39 38 35 30 26 24 20 15 12 13
25 25 26 25 25 25 24 23 22 22 21 20 19 19 20 18 17 16 15 13 12 13 14 17 20 19 20 23 26 28 30 31 31 32 34 34 33 29 28 31 32 31 32 35 36 35 33 33 33 30 27 28 30 33 36 38 41 40 35 31 27 27 30 32 30 28 28 29 33 39 43 47 50 50 50 50 50 48 44 40 35 29 24 22 21
24 25 25 25 24 25 24 23 23 23 22 21 19 18 18 19 18 18 17 15 15 14 13 16 19 20 19 22 24 26 27 28 29 30 32 35 36 34 31 28 26 25 26 30 34 36 37 37 38 37 35 34 33 32 31 32 39 42 36 30 29 32 33 30 27 24 22 20 23 29 35 40 44 45 46 46 45 42 42 41 40 36 31 27 25
23 24 24 24 24 24 24 24 24 23 22 21 20 19 18 19 20 20 18 17 16 15 13 14 17 19 18 17 20 22 24 26 27 29 31 33 34 33 32 30 28 27 27 29 32 33 34 36 38 41 42 39 37 36 34 32 34 35 34 35 37 36 32 27 24 22 20 20 23 24 24 28 34 36 37 37 35 33 33 33 35 37 35 32 30
23 24 23 23 23 24 24 24 24 23 22 21 21 21 19 18 19 20 20 18 17 15 13 14 17 18 16 14 15 18 21 23 24 25 27 30 31 31 32 32 33 33 33 33 32 31 32 32 31 31 35 37 35 35 39 40 36 31 31 36 38 34 31 29 25 20 16 18 21 22 22 24 27 28 28 29 29 28 28 29 32 35 36 37 37
24 22 22 23 23 23 25 25 25 23 23 22 22 21 19 19 18 18 19 19 18 16 14 15 17 17 14 13 13 15 17 20 21 22 23 25 26 28 30 31 32 34 33 29 27 27 26 23 17 13 15 20 22 24 29 36 39 36 33 34 35 32 31 31 28 23 18 17 19 21 24 26 26 25 25 25 24 23 24 27 30 32 33 36 38
24 22 21 22 22 23 25 27 26 24 23 23 21 20 19 19 18 19 19 18 17 17 15 14 15 13 12 12 11 11 12 13 14 16 19 20 21 24 26 26 25 29 31 27 22 19 17 15 13 13 14 14 17 19 20 25 33 39 39 37 35 33 31 30 30 27 23 20 20 20 22 26 27 27 27 25 23 23 25 27 28 29 29 30 32
25 23 22 21 21 22 26 28 27 25 24 21 19 19 18 17 17 18 19 18 17 17 16 13 13 12 11 10 9 7 8 8 6 6 9 13 16 18 22 22 21 23 27 27 25 23 21 18 14 11 10 11 11 12 14 19 23 31 40 41 37 33 31 29 28 25 21 20 20 20 21 25 28 28 28 26 25 24 25 27 27 27 26 25 26
24 23 22 22 21 23 26 27 27 27 26 20 16 16 17 16 16 18 19 20 18 17 17 15 13 14 11 8 6 6 7 6 4 2 2 4 7 9 11 13 15 18 21 23 25 26 22 15 10 8 10 14 17 17 18 21 22 23 27 33 34 33 32 30 27 24 21 20 21 22 23 24 25 26 26 25 26 27 27 29 29 29 29 28 27
24 23 23 22 22 24 26 27 27 27 22 18 17 16 16 15 16 21 22 22 20 18 18 16 9 10 12 10 10 12 11 9 6 3 3 3 4 4 5 6 8 11 14 16 18 20 20 17 16 16 17 20 22 24 25 26 27 27 27 27 27 27 27 26 24 23 21 22 23 24 24 24 24 24 23 23 23 24 26 28 28 28 30 30 27
23 23 23 22 24 26 26 26 26 23 21 26 26 23 18 15 16 20 22 23 21 18 15 16 15 7 6 10 12 14 14 12 11 9 9 9 6 3 3 5 4 2 2 2 3 6 9 10 11 12 11 11 11 13 16 19 22 25 25 26 28 27 25 23 22 22 23 23 23 22 21 21 21 22 22 22 23 23 23 24 24 24 25 25 23
22 23 23 22 24 26 26 26 26 22 19 24 26 28 29 27 25 25 26 27 25 19 15 17 18 18 21 19 14 13 13 14 14 12 11 12 10 6 5 4 5 8 9 9 9 7 4 2 2 3 5 5 5 7 12 17 20 20 18 19 21 24 24 24 23 23 23 22 21 21 21 21 22 22 22 22 23 23 23 23 23 23 23 23 22
21 22 23 23 25 27 26 26 26 23 19 17 17 21 27 31 33 34 34 34 34 31 29 25 20 21 27 26 21 18 16 15 15 14 13 13 13 11 10 7 6 7 7 8 10 10 8 7 7 7 5 4 4 5 8 12 15 16 16 16 19 22 24 24 23 22 22 21 21 21 21 20 20 21 20 21 22 22 22 22 22 22 22 21 21
21 21 23 24 25 26 26 26 26 24 22 20 17 15 17 20 25 29 33 37 40 39 36 33 30 28 28 26 25 24 21 20 20 18 16 16 16 15 14 12 11 9 7 9 14 18 18 17 17 17 14 13 14 13 13 13 14 14 14 13 11 11 12 12 12 13 13 14 17 19 20 20 20 19 19 20 21 21 22 21 21 22 23 22 21
20 20 22 23 23 25 25 25 26 25 23 22 21 19 17 17 19 22 26 31 37 39 39 38 38 37 34 31 30 28 25 23 22 22 21 20 18 18 17 17 17 14 10 14 22 26 24 23 22 21 20 19 19 19 18 18 18 17 17 18 18 18 17 19 20 19 17 15 13 12 12 14 17 19 21 22 22 21 21 19 18 19 20 22 21
20 19 21 23 22 23 24 24 26 26 25 24 24 23 21 19 18 19 20 23 28 34 37 38 39 40 40 37 35 31 27 24 23 24 24 23 22 21 22 23 23 20 18 22 26 25 22 22 22 21 20 19 19 20 20 19 19 19 18 18 18 18 20 22 22 21 21 21 20 19 18 17 15 14 16 18 19 19 18 18 17 17 17 17 19
22 18 21 22 21 21 22 23 25 26 26 26 26 26 25 23 21 20 20 21 23 26 30 34 37 40 42 41 39 36 32 28 26 24 24 25 23 21 22 25 28 28 29 30 27 22 20 21 20 19 20 20 20 21 21 20 20 20 20 20 19 19 22 24 24 24 23 22 22 22 22 22 20 19 19 17 15 14 13 13 14 15 15 16 17
25 20 19 20 20 19 20 21 23 25 26 27 26 26 24 24 24 23 21 20 20 21 24 28 31 35 38 40 41 40 37 34 31 28 27 25 21 18 21 26 29 30 31 29 25 22 21 20 20 20 20 20 20 21 20 20 20 20 20 20 20 21 23 24 24 24 23 22 23 24 24 23 22 21 20 19 18 17 16 14 13 12 13 14 15
27 22 18 18 18 18 18 19 21 22 23 25 26 25 24 23 23 22 22 22 23 24 26 29 30 33 36 37 37 38 38 38 38 36 35 32 29 28 28 28 25 24 25 24 22 22 22 20 20 21 21 21 21 21 20 20 19 19 20 20 20 21 23 23 23 23 23 23 24 24 24 24 24 23 23 21 19 18 17 17 16 15 16 15 15
25 23 19 16 16 17 16 18 20 21 22 23 24 25 25 24 23 22 22 24 26 28 30 32 34 35 36 35 33 32 33 35 38 40 40 40 40 38 33 26 23 22 23 22 21 21 21 21 20 20 20 20 21 21 21 22 21 21 21 21 21 22 22 21 21 22 22 23 24 23 23 24 24 24 24 22 21 20 19 18 18 18 18 17 17
21 21 19 17 16 17 17 17 18 20 21 21 21 22 23 23 23 24 24 25 27 28 29 31 33 34 34 32 28 28 31 36 39 40 39 38 37 35 30 26 25 24 22 22 21 21 20 20 20 20 20 20 21 21 22 23 23 23 23 24 24 24 24 24 25 25 24 23 23 23 23 23 23 24 24 22 21 20 19 19 19 18 18 17 16
15 16 17 17 16 16 17 17 17 18 19 19 19 21 22 22 22 23 23 25 26 27 28 30 31 31 32 31 29 28 31 34 33 31 31 30 30 30 28 27 27 25 23 23 23 22 21 21 21 21 21 21 22 22 22 23 24 25 25 25 27 28 28 27 27 26 25 24 23 23 24 23 23 24 23 22 21 21 21 20 18 17 18 17 16
9 10 13 15 15 14 14 14 15 15 15 16 17 20 21 21 21 21 21 22 24 26 26 29 30 30 29 29 28 26 26 26 25 24 26 26 27 27 28 27 26 25 24 23 23 22 22 22 21 21 22 22 22 22 22 22 22 23 25 26 26 26 27 27 26 26 26 26 25 24 24 24 25 24 22 22 22 22 21 20 19 18 18 18 17
8 8 8 11 12 12 11 11 13 14 14 14 15 16 17 18 19 21 21 20 21 22 23 25 27 27 27 27 26 25 24 22 22 24 25 26 26 26 26 25 24 24 24 23 22 22 22 22 22 22 22 22 23 23 23 23 22 23 26 26 23 22 26 29 29 28 28 28 28 27 26 25 25 24 22 22 22 22 21 20 20 19 18 18 17
9 9 9 9 11 11 10 9 11 13 13 13 13 14 16 17 17 18 20 19 17 17 18 20 22 24 26 28 29 28 26 24 24 24 25 25 26 27 27 26 25 24 24 24 24 24 23 23 24 24 24 23 23 24 25 26 24 24 27 27 25 25 30 33 33 32 30 29 29 29 28 27 26 25 23 22 22 22 21 20 20 19 18 18 17
9 9 9 10 11 11 11 11 11 10 10 10 12 14 15 16 16 16 16 17 16 16 16 16 17 19 21 24 26 26 26 26 26 26 26 26 27 29 29 28 27 26 25 25 25 26 27 27 27 27 27 26 24 23 25 27 25 25 27 29 30 32 34 34 34 33 32 31 31 30 29 28 27 26 25 24 23 21 20 20 20 20 19 19 18
9 9 9 10 10 11 11 12 12 11 10 10 12 14 14 15 15 15 15 15 15 15 15 15 16 17 18 19 21 22 22 21 22 22 23 23 24 25 25 26 27 28 27 27 26 26 27 28 29 29 30 30 28 27 27 27 27 27 27 30 33 35 35 34 33 32 30 30 31 30 29 28 27 26 26 25 23 21 20 19 20 20 20 20 19
8 9 9 9 10 10 11 11 11 12 12 11 12 13 13 14 14 15 15 14 14 14 15 15 16 16 17 18 19 19 19 19 19 20 20 20 21 20 20 20 22 24 24 25 25 24 24 25 26 28 28 29 30 29 27 26 28 28 29 30 33 34 33 32 31 29 28 28 29 28 28 27 25 25 25 25 23 21 20 19 19 19 19 19 20
8 9 8 9 9 9 10 11 11 11 12 12 12 12 12 13 13 14 14 14 14 14 14 15 15 16 16 17 17 18 18 18 19 20 20 20 20 21 19 18 18 19 20 20 20 20 20 21 23 26 28 27 27 27 26 26 28 30 30 31 33 33 30 29 28 27 27 27 26 25 25 25 24 24 24 23 22 22 20 20 19 18 17 17 19
8 8 8 8 8 8 9 10 10 10 11 11 12 12 12 12 13 13 13 14 14 14 14 14 15 16 16 17 17 17 18 19 19 19 20 20 20 20 20 19 18 18 18 18 18 19 19 18 19 23 28 28 26 26 28 30 31 32 32 32 33 32 29 26 26 25 25 24 23 22 22 22 23 24 24 23 22 22 21 21 21 20 18 17 17
7 7 8 8 8 8 9 9 9 10 10 10 11 11 12 12 12 13 13 14 14 14 14 14 15 15 16 17 18 18 18 18 19 19 19 19 19 19 20 19 18 17 17 17 17 18 19 18 17 19 26 30 30 30 32 33 33 32 33 33 33 32 28 25 24 23 22 21 20 20 20 20 21 22 23 23 22 21 21 21 22 22 20 17 16
7 7 7 8 8 8 8 8 9 9 9 9 10 10 11 11 12 12 12 13 13 14 14 14 15 15 16 16 17 18 18 18 18 18 18 19 19 18 19 19 18 17 17 18 17 17 18 18 17 16 22 30 33 32 33 34 33 33 34 34 33 31 28 24 23 22 21 20 18 18 19 20 20 21 23 23 22 22 22 21 21 23 22 18 15
7 7 7 7 7 8 8 8 9 9 9 9 9 10 10 10 11 11 12 12 12 13 13 14 14 14 15 15 16 16 17 17 17 17 17 17 18 18 18 18 18 18 17 17 18 17 17 18 17 14 17 26 32 33 33 33 33 33 34 34 32 31 29 25 22 21 20 19 18 18 18 19 19 21 23 24 22 22 23 23 21 22 22 20 18
6 6 6 7 7 7 7 8 8 8 9 9 9 9 9 10 10 11 11 12 12 12 12 13 13 14 14 14 14 15 16 16 16 16 16 17 17 17 18 18 18 18 17 17 18 17 17 18 18 15 15 22 30 33 32 32 32 32 33 33 32 31 30 27 23 20 18 18 18 19 19 18 17 19 23 25 22 21 24 24 22 21 21 21 20
Wind_Direction
304 299 295 293 289 286 282 277 268 247 230 225 229 235 235 229 228 229 229 229 230 233 237 231 220 214 214 214 211 205 202 200 198 200 204 207 206 202 201 202 202 204 205 206 207 210 213 214 216 218 219 219 220 221 221 221 220 219 219 219 217 215 214 213 213 226 231 233 236 234 233 236 238 236 235 234 237 240 239 238 236 236 240 243 243
303 302 300 296 290 287 287 285 280 267 246 229 222 227 231 228 225 226 226 227 226 226 229 228 221 213 211 215 216 210 204 199 197 199 201 204 203 201 200 202 202 203 204 206 207 209 213 214 215 217 217 218 219 219 219 220 219 218 217 216 217 216 214 213 212 217 226 228 231 233 232 233 235 233 233 235 238 241 238 233 232 235 240 244 244
304 305 302 297 292 289 290 290 286 281 268 253 235 227 227 225 225 226 224 224 224 222 222 227 227 218 209 210 217 218 211 202 199 200 201 202 201 199 198 201 203 202 202 204 206 208 212 214 217 218 216 217 221 220 219 219 219 218 217 216 217 218 215 213 213 215 220 222 225 228 228 229 231 230 231 233 235 237 237 234 233 234 238 243 246
307 306 302 298 294 291 293 292 290 288 280 273 263 245 231 224 229 235 229 222 226 225 220 224 228 224 215 211 212 218 218 208 201 201 203 203 202 198 196 199 203 204 203 203 204 205 208 212 216 219 217 218 223 223 221 221 220 219 219 217 216 218 218 216 216 218 220 221 222 224 226 227 229 229 230 232 234 235 236 236 235 236 240 244 247
306 305 302 299 296 293 295 294 292 291 289 284 271 257 241 223 224 236 235 222 224 228 225 224 227 226 223 216 210 211 216 214 207 205 205 205 204 200 197 197 203 207 207 206 205 206 208 211 213 216 218 221 225 225 222 221 223 222 221 219 216 216 217 218 219 219 221 223 222 223 226 228 229 229 228 229 233 234 235 238 239 241 243 245 246
304 304 303 302 300 297 295 296 295 293 297 295 269 245 242 222 211 221 229 221 217 224 226 223 224 226 223 218 212 209 212 215 213 209 206 205 205 203 199 200 204 209 211 209 209 210 211 213 213 213 215 221 227 229 223 220 223 225 225 223 219 216 215 216 217 217 220 223 224 223 225 227 228 228 226 226 229 230 231 236 241 243 244 243 245
305 306 305 303 302 300 296 297 298 297 301 302 272 234 236 228 213 212 220 218 212 217 220 217 219 224 224 220 216 211 210 212 214 215 210 206 205 202 200 202 207 211 214 212 211 213 214 215 214 214 215 219 224 229 228 222 221 225 227 227 225 222 218 215 214 215 217 220 223 223 224 225 227 229 227 225 230 233 230 230 236 241 242 242 244
308 307 304 302 300 300 300 298 301 305 307 303 276 242 238 238 228 220 220 220 216 213 213 212 214 218 221 222 218 215 213 211 210 214 214 210 206 202 201 204 207 210 213 213 212 214 217 217 217 217 218 220 222 226 228 225 222 223 225 228 229 229 226 220 215 214 216 218 220 222 223 224 226 228 228 225 228 232 228 225 230 237 241 244 247
308 306 304 302 299 299 301 301 306 315 314 308 287 248 236 241 242 235 225 222 222 218 215 214 214 215 218 222 221 217 215 212 209 209 211 210 208 203 201 204 207 208 211 213 213 216 217 216 217 219 221 223 224 224 226 227 225 224 224 224 226 228 231 229 223 219 218 217 218 217 219 223 224 223 224 224 226 230 230 229 233 237 241 245 249
308 306 302 300 298 297 301 304 309 317 317 314 302 258 238 244 246 239 232 226 225 225 224 221 221 222 222 225 228 224 220 218 212 208 209 209 207 204 201 204 207 209 211 212 214 218 219 218 217 218 222 225 226 226 227 226 226 228 227 224 223 224 227 229 229 225 222 220 219 214 213 220 221 219 221 225 226 228 230 232 237 242 244 249 252
306 305 302 298 296 299 305 310 312 317 320 319 308 268 246 252 250 240 236 233 228 228 229 227 230 232 232 234 236 235 236 234 221 212 210 209 207 203 201 205 209 211 212 212 213 217 219 220 219 219 222 225 227 229 230 228 228 229 229 227 224 223 223 226 229 228 226 227 225 219 218 223 221 218 222 227 226 224 226 227 232 237 237 241 252
305 304 304 300 300 306 313 318 319 322 326 327 318 277 238 244 253 247 241 238 235 235 234 230 232 236 240 244 244 243 245 244 237 231 220 210 207 204 201 205 209 211 212 212 213 215 218 219 220 221 223 225 228 229 231 231 230 230 230 230 227 224 223 224 227 227 227 229 231 227 226 227 224 221 223 225 224 222 224 224 225 227 228 230 238
311 310 311 310 310 315 320 320 323 326 326 327 328 311 257 242 242 239 238 238 239 243 241 235 234 235 239 245 249 251 249 242 244 253 241 218 211 207 204 206 209 210 212 212 212 214 216 217 219 220 222 224 227 229 231 232 232 231 231 232 232 229 228 228 229 229 228 230 232 233 232 231 230 229 228 228 227 223 223 224 224 223 225 228 234
320 318 322 324 322 324 326 325 325 325 322 323 330 329 303 271 246 232 233 235 237 242 242 238 236 235 234 236 241 250 253 247 242 248 249 239 227 216 210 210 210 211 213 213 213 214 215 215 215 218 221 222 225 227 229 231 233 233 232 233 234 233 232 231 231 230 230 230 232 235 236 234 235 238 238 236 233 229 227 227 227 227 229 233 237
324 326 329 330 328 329 330 328 326 324 322 324 327 332 330 306 271 245 234 230 230 237 240 236 232 233 237 239 241 246 249 247 240 236 246 258 247 229 218 214 213 214 215 215 214 214 215 214 214 216 218 220 223 225 227 229 230 232 232 233 234 234 234 233 232 230 230 230 232 236 237 237 238 243 245 243 243 245 243 239 238 239 241 244 245
328 331 331 329 327 328 328 326 325 325 327 328 327 330 340 333 311 285 258 238 231 235 239 237 229 224 228 233 236 239 242 244 241 234 235 251 260 251 241 233 229 228 227 223 219 216 214 212 212 214 216 218 222 224 226 227 227 229 230 231 233 234 235 236 235 234 235 234 235 237 238 238 238 239 240 238 241 248 255 259 260 260 262 261 256
331 330 330 328 326 325 325 325 325 327 330 331 332 335 336 334 326 308 283 262 251 245 244 243 236 225 221 221 223 228 237 244 243 233 226 231 245 257 260 257 258 271 276 264 250 238 228 218 214 213 215 217 221 223 226 225 224 225 227 228 231 234 237 240 241 241 241 242 243 244 245 244 243 242 240 239 243 250 259 269 270 267 267 264 258
330 329 329 328 327 325 325 326 326 329 332 332 334 334 330 327 325 312 294 277 263 254 252 253 249 237 227 224 223 225 232 239 236 225 221 226 232 240 248 248 246 250 258 263 267 269 264 253 241 232 226 224 222 222 223 223 221 224 226 227 228 230 234 240 242 243 245 247 248 250 252 253 252 250 248 247 248 253 257 262 266 268 265 256 255
328 327 326 326 327 327 327 328 328 328 330 330 329 327 323 320 318 311 302 291 277 269 262 259 258 250 236 231 232 230 231 234 232 222 220 225 230 233 239 239 238 238 240 245 253 260 263 263 263 261 254 249 243 233 226 222 222 224 226 227 228 229 232 236 238 240 243 246 248 249 251 253 252 252 252 252 252 254 254 254 257 259 259 256 255
327 325 324 325 328 328 328 328 328 327 325 324 322 323 321 318 315 312 307 297 288 280 262 251 255 254 242 233 233 235 235 236 235 229 223 223 227 233 234 232 233 236 237 240 246 252 255 257 259 258 253 252 255 250 239 229 227 226 226 228 229 229 230 233 235 236 233 234 244 249 250 251 251 251 252 253 254 255 252 250 250 250 250 252 253
329 327 327 328 328 329 329 328 327 325 323 321 321 320 320 318 315 312 306 295 285 277 263 253 253 253 247 238 236 238 239 238 238 237 231 226 227 230 227 223 223 227 230 234 238 243 246 247 249 251 248 247 253 254 249 243 238 229 225 229 231 229 230 234 238 239 236 236 243 248 249 249 250 250 251 251 253 254 251 249 248 246 243 243 246
331 329 331 332 331 331 332 331 328 325 322 321 320 318 317 316 312 307 303 296 285 270 256 251 252 253 252 246 240 239 241 241 240 240 240 237 233 229 225 223 224 226 227 230 232 236 242 245 247 248 244 243 249 249 244 243 243 234 227 229 231 231 235 238 240 243 243 239 239 242 245 245 244 246 247 248 250 253 253 254 253 250 245 243 243
336 335 335 336 336 335 334 332 330 326 323 321 318 317 317 316 313 308 303 298 288 273 249 232 232 240 245 243 239 235 235 238 239 239 243 246 241 235 230 228 229 228 227 232 236 237 241 245 252 264 260 254 257 256 249 245 244 241 239 238 236 237 240 241 241 242 243 238 233 234 239 242 242 244 247 248 250 255 258 260 258 255 251 250 250
344 343 340 341 343 341 336 333 329 325 323 322 319 319 319 318 317 310 302 296 289 280 262 233 218 222 230 231 231 228 222 225 231 235 241 247 248 246 244 241 237 230 228 236 248 255 262 266 273 291 299 291 283 283 284 274 258 249 246 244 241 240 240 238 238 242 246 247 243 239 241 245 248 251 254 257 258 259 259 258 254 251 250 253 257
346 346 345 346 348 345 338 333 330 326 323 321 321 324 327 324 321 317 312 305 296 285 273 246 213 202 213 221 219 213 206 205 213 230 246 252 255 254 253 253 249 240 235 238 249 264 280 290 290 289 295 299 296 301 317 316 290 263 249 242 239 238 235 234 236 239 243 246 247 247 248 252 255 258 262 264 261 255 251 248 245 241 242 250 260
345 348 351 350 350 347 340 336 333 327 324 322 324 333 337 332 335 345 341 330 319 308 296 274 229 193 189 201 184 150 144 150 154 181 259 267 268 267 263 259 256 253 250 244 242 247 257 269 279 278 284 298 305 306 306 310 309 292 264 249 243 238 234 233 234 236 238 241 244 247 250 254 260 264 268 267 260 254 252 251 248 245 247 252 256
346 350 354 353 353 351 346 343 338 335 346 3 2 355 351 349 4 14 4 346 334 325 321 316 283 203 176 162 134 113 101 93 85 60 29 7 319 299 305 300 284 272 264 251 241 241 243 249 265 274 280 289 296 298 294 290 292 295 290 279 271 260 248 241 239 239 242 244 246 249 251 254 258 261 263 261 257 256 256 255 252 252 256 258 255
350 354 356 358 359 356 352 351 347 350 22 41 34 22 17 20 31 32 20 7 352 332 333 354 358 11 101 116 113 100 83 69 62 52 41 32 16 355 347 339 333 325 292 255 228 240 244 249 265 276 280 284 294 306 308 302 296 294 291 291 292 288 280 271 261 252 249 249 251 253 253 254 255 257 258 259 259 259 258 255 253 254 256 253 244
354 358 359 2 4 2 360 0 358 2 32 54 53 51 51 50 50 44 36 31 25 17 25 32 24 34 57 70 82 82 67 57 56 55 52 49 52 70 79 58 79 99 99 100 106 109 103 80 2 313 292 282 288 299 298 294 291 286 281 281 283 283 280 274 265 257 253 254 255 257 257 257 257 259 261 262 263 263 262 258 255 254 251 242 234
357 0 1 2 6 8 7 8 8 9 21 39 50 55 56 53 51 48 44 43 43 46 55 57 52 54 60 62 65 69 68 66 70 73 71 68 71 83 89 85 92 106 117 116 102 89 76 60 44 28 3 339 343 337 316 303 298 294 288 278 265 258 255 253 252 254 254 252 252 254 257 258 261 263 265 265 266 267 268 266 261 255 247 239 234
359 1 2 1 6 12 13 12 14 15 17 21 23 28 35 38 40 42 44 46 46 48 54 61 66 67 66 62 61 67 75 79 81 80 76 72 72 74 76 75 71 75 104 106 76 57 50 47 43 38 35 34 33 30 24 15 4 351 342 333 316 296 286 289 299 300 286 269 261 257 252 252 255 259 261 263 265 267 267 268 267 260 254 248 241
1 0 0 0 6 13 15 16 19 20 20 21 23 24 24 25 27 30 35 43 47 47 48 53 60 65 67 65 61 62 67 74 78 77 73 71 72 72 72 72 67 64 80 82 64 52 47 45 41 36 33 32 29 27 26 24 19 13 9 4 1 2 1 356 352 352 352 348 336 316 291 276 269 265 261 259 259 260 261 263 265 263 260 255 251
7 2 360 1 7 13 15 17 21 23 22 23 25 27 29 28 27 26 27 35 45 48 47 48 53 59 63 64 62 60 62 67 73 75 74 72 72 74 74 72 67 65 69 66 56 49 45 44 41 37 33 30 25 24 25 22 17 15 12 5 359 359 1 358 356 357 359 359 358 356 350 343 332 317 299 279 265 260 258 260 262 263 263 261 258
19 12 5 8 12 14 15 17 19 21 22 22 24 29 32 33 31 29 26 26 32 40 44 45 48 53 57 60 61 60 60 63 66 70 73 71 70 75 77 72 64 60 60 58 52 46 42 40 38 35 33 30 27 25 24 19 15 13 10 5 2 1 1 2 5 6 3 1 0 358 354 351 351 351 344 332 318 304 292 281 274 267 262 262 262
27 22 14 16 19 19 18 18 17 20 23 23 23 26 30 33 35 34 31 27 26 30 36 39 43 49 52 55 58 58 59 60 62 66 68 68 69 74 71 61 53 50 50 50 48 46 43 39 34 32 31 29 28 26 24 20 17 14 9 5 4 5 4 5 7 5 3 4 5 3 0 358 356 352 347 343 341 338 330 321 311 298 287 281 275
30 28 22 21 22 23 25 23 18 20 23 23 23 24 27 32 36 37 37 36 34 34 33 34 39 47 51 53 55 56 57 59 60 62 64 65 70 73 66 55 49 47 46 45 46 47 45 42 38 34 32 30 29 27 25 21 18 16 14 12 10 9 8 7 6 4 4 6 5 2 1 360 357 355 350 345 342 340 334 328 323 315 308 304 297
35 34 30 27 25 24 27 27 24 23 25 25 23 24 26 30 34 36 37 37 37 36 33 31 33 39 42 43 46 51 55 58 60 61 60 61 64 66 63 57 54 53 49 44 44 45 45 43 41 39 37 34 32 30 28 26 23 20 18 18 17 14 12 10 8 7 6 7 6 3 360 357 355 354 350 344 341 340 335 331 329 322 314 309 303
38 40 38 35 33 31 28 28 27 26 28 28 27 25 25 27 30 32 35 35 37 37 35 32 31 30 30 32 37 45 51 55 56 55 53 53 55 57 56 54 54 52 48 45 43 43 43 41 39 39 39 37 36 33 32 30 27 25 23 22 21 19 17 15 15 13 9 7 5 2 359 356 355 353 349 341 337 338 335 331 329 325 319 314 306
39 43 43 39 38 39 36 33 31 31 31 31 30 27 27 27 27 29 31 33 35 36 36 35 35 32 29 31 35 40 46 47 46 45 44 45 48 50 51 51 50 48 45 42 40 39 39 37 36 37 36 34 33 32 31 30 29 27 25 23 22 21 20 16 13 11 9 6 3 0 358 357 355 354 351 344 338 336 333 329 325 320 316 313 308
28 35 43 41 38 40 40 41 41 39 37 36 34 33 34 34 32 31 31 33 36 38 39 40 37 33 31 33 36 41 46 46 44 44 46 46 47 49 50 50 48 46 44 41 38 37 36 34 33 33 33 31 30 29 28 28 28 26 24 23 21 19 17 15 11 9 7 5 2 358 356 354 354 353 350 346 342 338 333 330 326 322 318 313 309
19 14 29 36 35 35 38 49 55 52 47 46 42 38 38 40 39 38 39 39 40 43 45 45 42 40 40 42 45 49 51 50 48 49 49 49 48 49 50 50 49 48 47 45 42 40 38 36 34 33 32 29 28 27 26 26 25 23 22 20 16 12 12 12 10 7 4 3 1 358 353 352 353 351 346 344 343 340 337 333 331 327 320 315 313
21 12 10 19 27 27 27 39 58 61 58 57 56 51 46 42 41 43 46 46 45 45 46 46 45 45 46 49 52 55 55 53 53 52 51 51 51 51 51 51 51 51 50 49 47 45 42 38 36 35 34 31 28 27 26 25 23 21 19 16 13 11 11 10 8 5 2 358 357 356 354 353 353 350 347 345 343 340 337 336 335 332 326 322 322
18 20 17 18 24 26 22 23 38 57 62 58 55 54 52 48 45 46 49 50 46 44 44 44 43 42 42 43 47 51 52 53 54 53 53 53 54 54 54 53 53 53 52 50 49 48 46 42 40 40 39 37 34 30 28 26 24 21 18 15 13 12 10 8 6 4 0 355 353 353 354 355 355 352 350 348 345 341 338 336 334 334 333 332 330
19 22 25 26 27 30 28 24 28 40 46 43 40 41 44 48 48 45 46 49 46 43 43 41 40 39 37 36 39 43 46 47 49 50 51 50 49 49 49 48 47 48 49 48 47 47 45 42 40 39 38 38 37 33 29 27 25 22 18 14 12 11 9 7 5 3 359 353 349 349 351 354 354 353 351 349 347 344 342 341 339 337 336 335 333
27 23 25 30 31 32 32 29 29 33 35 35 37 37 38 43 46 43 43 45 44 44 44 43 39 38 38 37 39 41 43 45 46 46 47 46 44 43 42 40 38 39 40 40 40 41 40 39 36 33 32 32 32 30 27 24 24 23 20 15 12 10 8 5 3 2 0 355 349 347 350 351 352 352 352 353 352 350 348 350 351 347 341 336 332
36 30 27 31 35 36 34 31 32 37 37 35 35 36 37 40 44 45 43 43 43 45 48 47 44 42 40 40 42 43 44 45 46 46 45 45 44 41 40 40 39 38 37 36 35 35 36 36 35 32 31 29 27 26 24 22 22 23 20 15 11 10 7 4 3 3 1 357 352 350 351 350 349 350 353 357 360 359 356 356 356 353 348 344 338
40 40 35 32 35 40 41 36 33 38 42 40 37 36 37 38 40 43 42 41 41 43 45 46 45 44 42 40 41 42 43 44 45 44 43 43 42 39 38 39 40 39 38 37 36 35 35 35 33 31 30 29 27 25 23 21 22 22 19 14 11 10 7 4 4 2 360 358 356 355 355 354 351 351 354 359 4 5 2 359 356 352 347 345 345
41 45 44 39 38 39 42 41 38 38 43 45 43 41 40 39 39 40 40 39 39 39 41 41 42 42 40 38 37 37 39 41 42 41 40 39 38 37 35 36 37 37 35 34 34 34 33 32 32 29 27 26 25 24 22 21 21 21 19 15 12 9 7 6 6 2 359 358 360 0 1 359 354 352 356 0 4 5 4 1 360 357 351 345 347
47 50 47 44 45 45 43 45 44 41 42 45 47 46 45 44 42 41 40 40 39 39 39 40 40 40 41 38 36 35 36 37 38 38 37 36 34 34 33 33 34 34 33 32 32 32 30 30 30 27 22 21 21 22 21 20 19 19 18 14 10 8 7 7 7 5 2 1 3 5 6 2 357 355 359 2 4 6 5 2 3 4 0 353 350
52 56 51 47 49 48 47 51 51 47 46 49 50 49 48 48 46 44 43 42 41 40 40 40 40 40 41 40 37 35 35 35 36 36 36 34 33 32 31 31 31 31 31 30 30 30 29 28 28 24 16 14 15 18 19 17 17 18 16 12 9 9 8 7 8 9 7 6 8 9 7 0 355 356 360 4 7 7 5 4 6 8 5 1 357
57 61 59 57 56 51 50 54 55 51 50 53 54 53 51 49 48 47 46 45 44 43 42 42 42 41 42 42 40 37 35 35 36 36 34 33 32 30 29 29 29 28 28 28 28 28 27 26 26 24 13 7 10 14 15 15 15 16 15 13 12 11 9 7 8 10 11 13 14 12 6 359 356 358 1 4 8 7 4 6 8 7 4 4 4